Time,TemperatureF,DewpointF,PressureIn,WindDirection,WindDirectionDegrees,WindSpeedMPH,WindSpeedGustMPH,Humidity,HourlyPrecipIn,Conditions,Clouds,dailyrainin,SoftwareType,DateUTC
2013-01-20 00:04:00,43.0,28.0,30.03,SSW,197,5.0,5.0,54,0.00,,,0.05,,2013-01-20 05:04:00,
2013-01-20 00:12:00,43.0,28.0,30.03,SSW,197,5.0,5.0,54,0.00,,,0.05,,2013-01-20 05:12:00,
2013-01-20 00:22:00,43.0,27.0,30.02,SSW,200,7.0,7.0,53,0.00,,,0.00,,2013-01-20 05:22:00,
2013-01-20 00:33:00,43.0,28.0,30.02,SW,221,5.0,5.0,54,0.00,,,0.00,,2013-01-20 05:33:00,
2013-01-20 00:42:00,43.0,28.0,30.02,SW,221,5.0,5.0,54,0.00,,,0.00,,2013-01-20 05:42:00,
2013-01-20 00:53:00,43.0,28.0,30.02,SSW,194,4.0,4.0,55,0.00,,,0.00,,2013-01-20 05:53:00,
2013-01-20 01:02:00,43.0,28.0,30.02,SSW,201,3.0,0.0,56,0.00,,,0.00,,2013-01-20 06:02:00,
2013-01-20 01:12:00,43.0,28.0,30.02,SSW,201,3.0,0.0,56,0.00,,,0.00,,2013-01-20 06:12:00,
2013-01-20 01:22:00,43.0,28.0,30.02,SW,215,0.0,0.0,56,0.00,,,0.00,,2013-01-20 06:22:00,
2013-01-20 01:33:00,43.0,28.0,30.02,South,173,1.0,0.0,56,0.00,,,0.00,,2013-01-20 06:33:00,
2013-01-20 01:43:00,43.0,28.0,30.02,South,173,1.0,0.0,56,0.00,,,0.00,,2013-01-20 06:43:00,
2013-01-20 01:52:00,43.0,28.0,30.02,South,180,3.0,0.0,56,0.00,,,0.00,,2013-01-20 06:52:00,
2013-01-20 02:02:00,43.0,28.0,30.02,SSW,211,0.0,0.0,56,0.00,,,0.00,,2013-01-20 07:02:00,
2013-01-20 02:12:00,43.0,28.0,30.02,SSW,211,0.0,0.0,56,0.00,,,0.00,,2013-01-20 07:12:00,
2013-01-20 02:22:00,43.0,28.0,30.02,SSW,198,3.0,3.0,55,0.00,,,0.00,,2013-01-20 07:22:00,
2013-01-20 02:32:00,43.0,28.0,30.02,SW,217,0.0,0.0,56,0.00,,,0.00,,2013-01-20 07:32:00,
2013-01-20 02:42:00,43.0,28.0,30.02,SW,217,0.0,0.0,56,0.00,,,0.00,,2013-01-20 07:42:00,
2013-01-20 02:52:00,43.0,28.0,30.03,SSW,200,1.0,1.0,56,0.00,,,0.00,,2013-01-20 07:52:00,
2013-01-20 03:02:00,43.0,29.0,30.03,SSW,210,0.0,2.0,57,0.00,,,0.00,,2013-01-20 08:02:00,
2013-01-20 03:12:00,43.0,29.0,30.03,SSW,210,0.0,2.0,57,0.00,,,0.00,,2013-01-20 08:12:00,
2013-01-20 03:22:00,44.0,30.0,30.03,SSW,203,1.0,0.0,57,0.00,,,0.00,,2013-01-20 08:22:00,
2013-01-20 03:32:00,44.0,30.0,30.02,SSW,210,0.0,2.0,57,0.00,,,0.00,,2013-01-20 08:32:00,
2013-01-20 03:42:00,44.0,30.0,30.02,SSW,210,0.0,2.0,57,0.00,,,0.00,,2013-01-20 08:42:00,
2013-01-20 03:53:00,43.0,30.0,30.02,SW,214,4.0,4.0,59,0.00,,,0.00,,2013-01-20 08:53:00,
2013-01-20 04:02:00,44.0,30.0,30.02,SSW,193,4.0,8.0,58,0.00,,,0.00,,2013-01-20 09:02:00,
2013-01-20 04:12:00,44.0,30.0,30.02,SSW,193,4.0,8.0,58,0.00,,,0.00,,2013-01-20 09:12:00,
2013-01-20 04:22:00,44.0,30.0,30.02,SSW,212,3.0,3.0,58,0.00,,,0.00,,2013-01-20 09:22:00,
2013-01-20 04:33:00,44.0,31.0,30.02,West,262,2.0,3.0,59,0.00,,,0.00,,2013-01-20 09:33:00,
2013-01-20 04:42:00,44.0,31.0,30.02,West,262,2.0,3.0,59,0.00,,,0.00,,2013-01-20 09:42:00,
2013-01-20 04:53:00,44.0,31.0,30.02,WSW,245,4.0,0.0,59,0.00,,,0.00,,2013-01-20 09:53:00,
2013-01-20 05:02:00,44.0,30.0,30.03,WSW,257,4.0,4.0,58,0.00,,,0.00,,2013-01-20 10:02:00,
2013-01-20 05:12:00,44.0,30.0,30.03,WSW,257,4.0,4.0,58,0.00,,,0.00,,2013-01-20 10:12:00,
2013-01-20 05:22:00,44.0,31.0,30.03,WSW,255,1.0,4.0,59,0.00,,,0.00,,2013-01-20 10:22:00,
2013-01-20 05:32:00,44.0,31.0,30.03,WSW,243,4.0,4.0,60,0.00,,,0.00,,2013-01-20 10:32:00,
2013-01-20 05:42:00,44.0,31.0,30.03,WSW,243,4.0,4.0,60,0.00,,,0.00,,2013-01-20 10:42:00,
2013-01-20 05:53:00,44.0,31.0,30.03,West,266,2.0,4.0,61,0.00,,,0.00,,2013-01-20 10:53:00,
2013-01-20 06:02:00,43.0,31.0,30.03,West,260,3.0,4.0,62,0.00,,,0.00,,2013-01-20 11:02:00,
2013-01-20 06:12:00,43.0,31.0,30.04,WSW,250,3.0,3.0,63,0.00,,,0.00,,2013-01-20 11:12:00,
2013-01-20 06:22:00,43.0,31.0,30.04,WSW,250,3.0,3.0,63,0.00,,,0.00,,2013-01-20 11:22:00,
2013-01-20 06:33:00,43.0,31.0,30.04,WSW,250,3.0,3.0,63,0.00,,,0.00,,2013-01-20 11:33:00,
2013-01-20 06:43:00,43.0,31.0,30.04,WSW,250,3.0,3.0,63,0.00,,,0.00,,2013-01-20 11:43:00,
2013-01-20 06:54:00,43.0,32.0,30.05,WSW,256,3.0,3.0,64,0.00,,,0.00,,2013-01-20 11:54:00,
2013-01-20 07:03:00,42.0,31.0,30.06,West,278,4.0,4.0,65,0.00,,,0.00,,2013-01-20 12:03:00,
2013-01-20 07:13:00,42.0,31.0,30.06,West,278,4.0,4.0,65,0.00,,,0.00,,2013-01-20 12:13:00,
2013-01-20 07:23:00,42.0,32.0,30.06,WSW,257,1.0,6.0,67,0.00,,,0.00,,2013-01-20 12:23:00,
2013-01-20 07:33:00,41.0,31.0,30.06,South,177,3.0,3.0,68,0.00,,,0.00,,2013-01-20 12:33:00,
2013-01-20 07:43:00,41.0,31.0,30.06,South,177,3.0,3.0,68,0.00,,,0.00,,2013-01-20 12:43:00,
2013-01-20 07:53:00,41.0,32.0,30.07,WNW,295,1.0,0.0,69,0.00,,,0.00,,2013-01-20 12:53:00,
2013-01-20 08:03:00,41.0,32.0,30.07,West,270,0.0,0.0,70,0.00,,,0.00,,2013-01-20 13:03:00,
2013-01-20 08:12:00,41.0,32.0,30.07,West,270,0.0,0.0,70,0.00,,,0.00,,2013-01-20 13:12:00,
2013-01-20 08:23:00,40.0,31.0,30.07,SW,236,4.0,4.0,71,0.00,,,0.00,,2013-01-20 13:23:00,
2013-01-20 08:33:00,40.0,31.0,30.07,WSW,256,1.0,2.0,71,0.00,,,0.00,,2013-01-20 13:33:00,
2013-01-20 08:43:00,40.0,31.0,30.07,WSW,256,1.0,2.0,71,0.00,,,0.00,,2013-01-20 13:43:00,
2013-01-20 08:53:00,40.0,31.0,30.09,West,266,0.0,0.0,71,0.00,,,0.00,,2013-01-20 13:53:00,
2013-01-20 09:02:00,40.0,31.0,30.09,WSW,239,2.0,2.0,70,0.00,,,0.00,,2013-01-20 14:02:00,
2013-01-20 09:12:00,40.0,31.0,30.09,WSW,239,2.0,2.0,70,0.00,,,0.00,,2013-01-20 14:12:00,
2013-01-20 09:23:00,41.0,29.0,30.10,WNW,287,5.0,5.0,63,0.00,,,0.00,,2013-01-20 14:23:00,
2013-01-20 09:33:00,41.0,26.0,30.11,West,264,2.0,0.0,54,0.00,,,0.00,,2013-01-20 14:33:00,
2013-01-20 09:43:00,41.0,26.0,30.11,West,264,2.0,0.0,54,0.00,,,0.00,,2013-01-20 14:43:00,
2013-01-20 09:53:00,41.0,25.0,30.11,WSW,245,4.0,4.0,53,0.00,,,0.00,,2013-01-20 14:53:00,
2013-01-20 10:03:00,41.0,27.0,30.12,West,263,4.0,4.0,56,0.00,,,0.00,,2013-01-20 15:03:00,
2013-01-20 10:12:00,41.0,27.0,30.12,West,263,4.0,4.0,56,0.00,,,0.00,,2013-01-20 15:12:00,
2013-01-20 10:23:00,42.0,27.0,30.12,WSW,249,7.0,7.0,54,0.00,,,0.00,,2013-01-20 15:23:00,
2013-01-20 10:33:00,42.0,27.0,30.13,West,267,3.0,3.0,56,0.00,,,0.00,,2013-01-20 15:33:00,
2013-01-20 10:42:00,42.0,27.0,30.13,West,267,3.0,3.0,56,0.00,,,0.00,,2013-01-20 15:42:00,
2013-01-20 10:53:00,42.0,26.0,30.14,WSW,248,4.0,4.0,53,0.00,,,0.00,,2013-01-20 15:53:00,
2013-01-20 11:03:00,42.0,24.0,30.15,West,270,5.0,5.0,49,0.00,,,0.00,,2013-01-20 16:03:00,
2013-01-20 11:12:00,42.0,24.0,30.15,West,270,5.0,5.0,49,0.00,,,0.00,,2013-01-20 16:12:00,
2013-01-20 11:23:00,41.0,23.0,30.15,West,264,7.0,7.0,48,0.00,,,0.00,,2013-01-20 16:23:00,
2013-01-20 11:33:00,41.0,24.0,30.15,WNW,284,4.0,6.0,50,0.00,,,0.00,,2013-01-20 16:33:00,
2013-01-20 11:43:00,41.0,24.0,30.15,WNW,284,4.0,6.0,50,0.00,,,0.00,,2013-01-20 16:43:00,
2013-01-20 11:53:00,41.0,24.0,30.15,NNW,329,5.0,8.0,51,0.00,,,0.00,,2013-01-20 16:53:00,
2013-01-20 12:03:00,41.0,23.0,30.14,West,259,3.0,4.0,49,0.00,,,0.00,,2013-01-20 17:03:00,
2013-01-20 12:13:00,41.0,23.0,30.14,West,259,3.0,4.0,49,0.00,,,0.00,,2013-01-20 17:13:00,
2013-01-20 12:22:00,41.0,20.0,30.14,West,260,6.0,6.0,43,0.00,,,0.00,,2013-01-20 17:22:00,
2013-01-20 12:33:00,42.0,21.0,30.14,WNW,283,4.0,4.0,42,0.00,,,0.00,,2013-01-20 17:33:00,
2013-01-20 12:42:00,42.0,21.0,30.14,WNW,283,4.0,4.0,42,0.00,,,0.00,,2013-01-20 17:42:00,
2013-01-20 12:53:00,42.0,20.0,30.13,WNW,285,3.0,7.0,41,0.00,,,0.00,,2013-01-20 17:53:00,
2013-01-20 13:03:00,42.0,20.0,30.12,WNW,294,4.0,4.0,41,0.00,,,0.00,,2013-01-20 18:03:00,
2013-01-20 13:13:00,43.0,20.0,30.11,NW,326,7.0,7.0,40,0.00,,,0.00,,2013-01-20 18:13:00,
2013-01-20 13:23:00,43.0,20.0,30.11,NW,326,7.0,7.0,40,0.00,,,0.00,,2013-01-20 18:23:00,
2013-01-20 13:33:00,43.0,21.0,30.11,West,276,6.0,6.0,41,0.00,,,0.00,,2013-01-20 18:33:00,
2013-01-20 13:43:00,43.0,21.0,30.11,West,276,6.0,6.0,41,0.00,,,0.00,,2013-01-20 18:43:00,
2013-01-20 13:53:00,43.0,20.0,30.11,WNW,285,5.0,6.0,40,0.00,,,0.00,,2013-01-20 18:53:00,
2013-01-20 14:02:00,43.0,19.0,30.11,West,266,1.0,0.0,38,0.00,,,0.00,,2013-01-20 19:02:00,
2013-01-20 14:12:00,43.0,19.0,30.11,West,266,1.0,0.0,38,0.00,,,0.00,,2013-01-20 19:12:00,
2013-01-20 14:22:00,43.0,16.0,30.11,WNW,288,5.0,8.0,33,0.00,,,0.00,,2013-01-20 19:22:00,
2013-01-20 14:33:00,43.0,15.0,30.11,West,262,6.0,6.0,32,0.00,,,0.00,,2013-01-20 19:33:00,
2013-01-20 14:43:00,43.0,15.0,30.11,West,262,6.0,6.0,32,0.00,,,0.00,,2013-01-20 19:43:00,
2013-01-20 14:53:00,44.0,17.0,30.11,WSW,257,3.0,3.0,34,0.00,,,0.00,,2013-01-20 19:53:00,
2013-01-20 15:03:00,44.0,17.0,30.11,North,357,0.0,1.0,33,0.00,,,0.00,,2013-01-20 20:03:00,
2013-01-20 15:12:00,44.0,17.0,30.11,North,357,0.0,1.0,33,0.00,,,0.00,,2013-01-20 20:12:00,
2013-01-20 15:23:00,44.0,17.0,30.11,WNW,287,5.0,5.0,33,0.00,,,0.00,,2013-01-20 20:23:00,
2013-01-20 15:33:00,43.0,16.0,30.11,NW,308,5.0,5.0,33,0.00,,,0.00,,2013-01-20 20:33:00,
2013-01-20 15:42:00,43.0,16.0,30.11,NW,308,5.0,5.0,33,0.00,,,0.00,,2013-01-20 20:42:00,
2013-01-20 15:53:00,43.0,17.0,30.11,WNW,300,5.0,5.0,34,0.00,,,0.00,,2013-01-20 20:53:00,
2013-01-20 16:03:00,43.0,17.0,30.11,WNW,288,4.0,7.0,35,0.00,,,0.00,,2013-01-20 21:03:00,
2013-01-20 16:13:00,43.0,17.0,30.11,WNW,288,4.0,7.0,35,0.00,,,0.00,,2013-01-20 21:13:00,
2013-01-20 16:23:00,43.0,16.0,30.11,NW,318,5.0,5.0,33,0.00,,,0.00,,2013-01-20 21:23:00,
2013-01-20 16:33:00,43.0,16.0,30.11,NW,319,0.0,4.0,33,0.00,,,0.00,,2013-01-20 21:33:00,
2013-01-20 16:43:00,43.0,16.0,30.11,NW,319,0.0,4.0,33,0.00,,,0.00,,2013-01-20 21:43:00,
2013-01-20 16:53:00,42.0,16.0,30.11,NW,315,3.0,3.0,35,0.00,,,0.00,,2013-01-20 21:53:00,
2013-01-20 17:03:00,42.0,16.0,30.11,NW,314,2.0,0.0,35,0.00,,,0.00,,2013-01-20 22:03:00,
2013-01-20 17:13:00,42.0,16.0,30.11,NW,314,2.0,0.0,35,0.00,,,0.00,,2013-01-20 22:13:00,
2013-01-20 17:23:00,42.0,16.0,30.11,NW,316,2.0,0.0,35,0.00,,,0.00,,2013-01-20 22:23:00,
2013-01-20 17:33:00,41.0,15.0,30.10,NW,319,0.0,0.0,35,0.00,,,0.00,,2013-01-20 22:33:00,
2013-01-20 17:43:00,41.0,15.0,30.10,NW,319,0.0,0.0,35,0.00,,,0.00,,2013-01-20 22:43:00,
2013-01-20 17:52:00,41.0,15.0,30.11,NW,319,0.0,0.0,35,0.00,,,0.00,,2013-01-20 22:52:00,
2013-01-20 18:03:00,40.0,15.0,30.11,NW,319,0.0,0.0,36,0.00,,,0.00,,2013-01-20 23:03:00,
2013-01-20 18:13:00,40.0,15.0,30.11,NW,319,0.0,0.0,36,0.00,,,0.00,,2013-01-20 23:13:00,
2013-01-20 18:23:00,39.0,15.0,30.11,NW,319,0.0,0.0,37,0.00,,,0.00,,2013-01-20 23:23:00,
2013-01-20 18:33:00,39.0,15.0,30.11,NW,319,0.0,0.0,37,0.00,,,0.00,,2013-01-20 23:33:00,
2013-01-20 18:43:00,39.0,15.0,30.11,NW,319,0.0,0.0,37,0.00,,,0.00,,2013-01-20 23:43:00,
2013-01-20 18:53:00,38.0,14.0,30.11,NW,319,0.0,0.0,37,0.00,,,0.00,,2013-01-20 23:53:00,
2013-01-20 19:03:00,38.0,13.0,30.12,NW,319,0.0,0.0,36,0.00,,,0.00,,2013-01-21 00:03:00,
2013-01-20 19:13:00,38.0,13.0,30.12,NW,319,0.0,0.0,36,0.00,,,0.00,,2013-01-21 00:13:00,
2013-01-20 19:23:00,37.0,14.0,30.13,NW,319,0.0,0.0,38,0.00,,,0.00,,2013-01-21 00:23:00,
2013-01-20 19:33:00,36.0,14.0,30.13,NW,319,0.0,0.0,40,0.00,,,0.00,,2013-01-21 00:33:00,
2013-01-20 19:43:00,36.0,14.0,30.13,NW,319,0.0,0.0,40,0.00,,,0.00,,2013-01-21 00:43:00,
2013-01-20 19:54:00,36.0,14.0,30.13,NW,311,0.0,0.0,40,0.00,,,0.00,,2013-01-21 00:54:00,
2013-01-20 20:03:00,36.0,15.0,30.13,NW,319,0.0,0.0,41,0.00,,,0.00,,2013-01-21 01:03:00,
2013-01-20 20:13:00,36.0,15.0,30.13,NW,319,0.0,0.0,41,0.00,,,0.00,,2013-01-21 01:13:00,
2013-01-20 20:23:00,35.0,14.0,30.12,NW,319,0.0,0.0,42,0.00,,,0.00,,2013-01-21 01:23:00,
2013-01-20 20:33:00,35.0,14.0,30.12,NW,322,0.0,0.0,42,0.00,,,0.00,,2013-01-21 01:33:00,
2013-01-20 20:43:00,35.0,14.0,30.12,NW,322,0.0,0.0,42,0.00,,,0.00,,2013-01-21 01:43:00,
2013-01-20 20:53:00,35.0,14.0,30.12,NW,319,2.0,0.0,41,0.00,,,0.00,,2013-01-21 01:53:00,
2013-01-20 21:03:00,34.0,13.0,30.12,NW,315,1.0,0.0,41,0.00,,,0.00,,2013-01-21 02:03:00,
2013-01-20 21:12:00,34.0,13.0,30.12,NW,315,1.0,0.0,41,0.00,,,0.00,,2013-01-21 02:12:00,
2013-01-20 21:23:00,34.0,13.0,30.12,NW,323,0.0,0.0,42,0.00,,,0.00,,2013-01-21 02:23:00,
2013-01-20 21:33:00,33.0,13.0,30.12,NW,316,0.0,0.0,43,0.00,,,0.00,,2013-01-21 02:33:00,
2013-01-20 21:43:00,33.0,13.0,30.12,NW,316,0.0,0.0,43,0.00,,,0.00,,2013-01-21 02:43:00,
2013-01-20 21:53:00,33.0,12.0,30.12,NW,322,0.0,0.0,42,0.00,,,0.00,,2013-01-21 02:53:00,
2013-01-20 22:03:00,32.0,11.0,30.11,WNW,297,0.0,0.0,41,0.00,,,0.00,,2013-01-21 03:03:00,
2013-01-20 22:13:00,32.0,11.0,30.11,WNW,297,0.0,0.0,41,0.00,,,0.00,,2013-01-21 03:13:00,
2013-01-20 22:23:00,32.0,11.0,30.11,NW,315,0.0,0.0,41,0.00,,,0.00,,2013-01-21 03:23:00,
2013-01-20 22:33:00,31.0,11.0,30.11,NW,315,0.0,0.0,43,0.00,,,0.00,,2013-01-21 03:33:00,
2013-01-20 22:43:00,31.0,11.0,30.11,NW,315,0.0,0.0,43,0.00,,,0.00,,2013-01-21 03:43:00,
2013-01-20 22:53:00,31.0,12.0,30.11,NW,315,0.0,0.0,45,0.00,,,0.00,,2013-01-21 03:53:00,
2013-01-20 23:03:00,30.0,12.0,30.11,NW,315,0.0,0.0,46,0.00,,,0.00,,2013-01-21 04:03:00,
2013-01-20 23:12:00,30.0,12.0,30.11,NW,315,0.0,0.0,46,0.00,,,0.00,,2013-01-21 04:12:00,
2013-01-20 23:23:00,30.0,14.0,30.11,NW,315,0.0,0.0,50,0.00,,,0.00,,2013-01-21 04:23:00,
2013-01-20 23:33:00,29.0,14.0,30.11,NW,315,0.0,0.0,53,0.00,,,0.00,,2013-01-21 04:33:00,
2013-01-20 23:43:00,29.0,14.0,30.11,NW,315,0.0,0.0,53,0.00,,,0.00,,2013-01-21 04:43:00,
2013-01-20 23:53:00,29.0,13.0,30.11,NW,315,0.0,0.0,51,0.00,,,0.00,,2013-01-21 04:53:00,